Flag Weather past 2 weeks in Hohhot, Inner Mongolia, China

Now
32 °F

Clear.


Feels Like: 32 °F
Forecast: 24 / 42 °F
Wind: 1 mph from Northwest

Location: Hohhot Airport

Current Time: Nov 23, 2014 at 12:41:50 AM

Latest Report: Nov 23, 2014 at 12:00 AM


Visibility: 5 mi

Pressure: 30.15 "Hg

Humidity: 55%

Dew point: 18 °F

Location of HohhotLocation

Historic Weather in Hohhot — Graph

°F

Hohhot temperature yesterday

Maximum temperature yesterday: 43 °F (at 3:00 PM)
Minimum temperature yesterday: 14 °F (at 5:00 AM)
Average temperature yesterday: 28 °F

Past Weeks' High & Low Weather Summary

 TemperatureHumidityPressure
High48 °F (Nov 9, 3:00 PM)100% (Nov 16, 8:00 AM)30.45 "Hg (Nov 16, 8:00 AM)
Low12 °F (Nov 13, 7:00 AM)24% (Nov 20, 3:00 PM)29.95 "Hg (Nov 20, 12:00 AM)
Average29 °F60%30.24 "Hg
* Reported Nov 7 11:00 PM — Nov 22 11:00 PM, Hohhot, Weather by CustomWeather, © 2014

Note: Actual official high and low records may vary slightly from our data, if they occured in-between our weather recording intervals... More about our weather records

Advertising

Hohhot weather history for previous 24 hours

 ConditionsComfort  
Time TempWeatherWind HumidityBarometerVisibility
11:00 PM
Nov 22
32 °FClear.1 mph47%30.15 "Hg5 mi
10:00 PM30 °FClear.1 mph55%30.15 "Hg5 mi
9:00 PM30 °FClear.1 mph51%30.12 "Hg5 mi
8:00 PM28 °FClear.1 mph55%30.12 "Hg5 mi
7:00 PM30 °FClear.1 mph47%30.12 "Hg5 mi
6:00 PM36 °FClear.6 mph32%30.09 "Hg5 mi
5:00 PM39 °FSunny.3 mph26%30.09 "Hg10 mi
4:00 PM43 °FSunny.No wind24%30.09 "Hg10 mi
3:00 PM43 °FSunny.1 mph24%30.09 "Hg10 mi
2:00 PM41 °FPassing clouds.6 mph26%30.12 "HgN/A
1:00 PM41 °FSunny.3 mph26%30.15 "Hg10 mi
12:00 PM37 °FSunny.1 mph30%30.18 "Hg10 mi
11:00 AM36 °FSunny.1 mph32%30.21 "Hg10 mi
10:00 AM30 °FSunny.3 mph47%30.24 "Hg10 mi
9:00 AM23 °FSunny.3 mph63%30.24 "Hg10 mi
8:00 AM16 °FSunny.1 mph73%30.24 "Hg10 mi
7:00 AM16 °FClear.3 mph73%30.21 "Hg10 mi
6:00 AM16 °FClear.6 mph73%30.18 "Hg10 mi
5:00 AM14 °FClear.6 mph73%30.21 "Hg10 mi
4:00 AM16 °FClear.6 mph73%30.21 "Hg10 mi
3:00 AM18 °FClear.3 mph62%30.21 "Hg10 mi
2:00 AM18 °FClear.3 mph68%30.21 "Hg10 mi
1:00 AM19 °FClear.3 mph63%30.21 "Hg10 mi
12:00 AM21 °FPassing clouds.6 mph58%30.24 "HgN/A
Weather by CustomWeather, © 2014

See weather overviewHow to use our weather pages